period_start,C,m1,H,J0,J1,J2,J3,J4,J5,JA,JB,JC,JD,JJ,JK,JN,#
2014-02-12 00:00:08,0.06,13.50,0.00,22.36,26.15,28.81,6.19,28.83,1046.86,2041.00,958.00,1306.00,1413.97,349.76,334.09,24.12,0000 0000 0000 0000 000000
2014-02-12 00:01:08,0.05,13.50,0.00,22.37,26.15,28.80,6.19,28.38,1046.84,2041.00,957.94,1305.98,1413.91,349.77,334.13,24.12,0000 0000 0000 0000 000000
2014-02-12 00:02:08,0.13,13.51,0.00,22.37,26.15,28.79,6.25,28.42,1046.87,2041.00,957.74,1305.97,1413.66,350.57,334.86,24.13,0000 0000 0000 0000 000000
2014-02-12 00:03:08,0.37,13.51,0.00,22.37,26.16,28.80,6.13,28.63,1046.86,2041.00,957.36,1305.94,1413.41,350.09,334.55,24.13,0000 0000 0000 0000 000000
2014-02-12 00:04:08,0.57,13.51,0.00,22.39,26.17,28.83,6.12,28.58,1046.88,2041.00,957.14,1305.79,1413.18,349.39,333.72,24.14,0000 0000 0000 0000 000000
2014-02-12 00:05:09,0.45,13.51,0.00,22.39,26.17,28.84,6.07,28.54,1046.88,2041.00,957.05,1305.43,1413.08,348.15,332.53,24.15,0000 0000 0000 0000 000000
2014-02-12 00:06:09,0.49,13.52,0.00,22.39,26.17,28.84,6.24,28.75,1046.84,2040.99,957.02,1305.18,1413.02,350.32,334.59,24.15,0000 0000 0000 0000 000000
2014-02-12 00:07:09,0.22,13.52,0.00,22.39,26.18,28.87,6.08,28.29,1046.83,2040.98,956.98,1305.07,1413.00,350.02,334.78,24.16,0000 0000 0000 0000 000000
2014-02-12 00:08:09,0.12,13.52,0.00,22.39,26.19,28.88,6.23,28.50,1046.85,2040.97,956.92,1305.02,1412.99,350.88,335.13,24.16,0000 0000 0000 0000 000000
2014-02-12 00:09:09,0.13,13.52,0.00,22.40,26.20,28.85,6.12,28.50,1046.86,2040.94,956.66,1305.00,1412.90,349.56,333.94,24.17,0000 0000 0000 0000 000000
2014-02-12 00:10:10,0.29,13.52,0.00,22.41,26.20,28.84,6.04,28.54,1046.86,2040.91,956.30,1304.98,1412.64,348.91,333.23,24.18,0000 0000 0000 0000 000000
2014-02-12 00:11:10,0.52,13.52,0.00,22.42,26.20,28.87,6.23,28.58,1046.89,2040.91,956.13,1304.97,1412.34,349.59,333.50,24.18,0000 0000 0000 0000 000000
2014-02-12 00:12:10,0.32,13.53,0.00,22.42,26.21,28.86,6.06,28.58,1046.89,2040.90,956.05,1304.87,1412.15,348.81,333.13,24.19,0000 0000 0000 0000 000000
2014-02-12 00:13:10,0.26,13.53,0.00,22.42,26.22,28.88,6.15,28.33,1046.88,2040.89,956.01,1304.61,1412.06,349.71,333.98,24.19,0000 0000 0000 0000 000000
2014-02-12 00:14:10,0.28,13.53,0.00,22.43,26.22,28.88,6.12,28.54,1046.89,2040.93,956.00,1304.37,1412.02,349.55,334.44,24.20,0000 0000 0000 0000 000000
2014-02-12 00:15:10,0.29,13.53,0.00,22.44,26.22,28.88,6.17,28.29,1046.89,2040.94,955.96,1304.20,1412.00,349.40,333.39,24.20,0000 0000 0000 0000 000000
2014-02-12 00:16:11,0.23,13.53,0.00,22.44,26.23,28.88,6.18,28.54,1046.85,2040.88,955.91,1304.09,1412.00,351.16,335.05,24.21,0000 0000 0000 0000 000000
2014-02-12 00:17:11,0.05,13.53,0.00,22.44,26.24,28.90,6.27,28.54,1046.89,2040.85,955.61,1304.04,1411.97,350.04,334.16,24.22,0000 0000 0000 0000 000000
2014-02-12 00:18:11,0.38,13.53,0.00,22.45,26.25,28.91,6.19,28.46,1046.87,2040.77,955.25,1304.02,1411.81,350.17,334.27,24.22,0000 0000 0000 0000 000000
2014-02-12 00:19:11,0.27,13.54,0.00,22.45,26.25,28.92,6.23,28.54,1046.86,2040.58,955.09,1303.99,1411.42,349.92,334.16,24.23,0000 0000 0000 0000 000000
2014-02-12 00:20:12,0.21,13.54,0.00,22.46,26.25,28.92,6.21,28.54,1046.86,2040.54,955.03,1303.98,1411.18,349.70,334.23,24.23,0000 0000 0000 0000 000000
2014-02-12 00:21:12,0.17,13.54,0.00,22.47,26.27,28.91,6.11,28.71,1046.89,2040.45,954.99,1303.94,1411.08,349.25,333.56,24.24,0000 0000 0000 0000 000000
2014-02-12 00:22:12,-0.03,13.54,0.00,22.49,26.27,28.92,6.13,28.46,1046.87,2040.25,954.97,1303.73,1411.02,350.19,334.20,24.25,0000 0000 0000 0000 000000
2014-02-12 00:23:13,-0.07,13.54,0.00,22.49,26.27,28.94,6.18,28.38,1046.84,2040.15,954.90,1303.43,1411.00,350.34,334.50,24.25,0000 0000 0000 0000 000000
2014-02-12 00:24:13,0.19,13.54,0.00,22.49,26.27,28.92,6.20,28.46,1046.77,2040.07,954.50,1303.21,1411.00,350.11,334.26,24.26,0000 0000 0000 0000 000000
2014-02-12 00:25:13,0.55,13.54,0.00,22.49,26.28,28.92,6.14,28.63,1046.71,2040.05,954.18,1303.10,1410.95,349.99,334.12,24.26,0000 0000 0000 0000 000000
2014-02-12 00:26:13,0.44,13.55,0.00,22.49,26.29,28.94,6.17,28.54,1046.55,2040.05,954.07,1303.03,1410.82,350.67,334.47,24.27,0000 0000 0000 0000 000000
2014-02-12 00:27:14,0.26,13.55,0.00,22.50,26.30,28.97,6.17,28.58,1046.48,2040.04,954.02,1303.01,1410.43,349.80,333.85,24.27,0000 0000 0000 0000 000000
2014-02-12 00:28:14,0.22,13.55,0.00,22.52,26.30,28.94,6.19,28.46,1046.46,2040.02,954.00,1303.00,1410.18,350.00,333.69,24.28,0000 0000 0000 0000 000000
2014-02-12 00:29:14,0.12,13.55,0.00,22.52,26.30,28.98,6.30,28.67,1046.54,2040.01,953.97,1302.99,1410.06,349.85,333.90,24.29,0000 0000 0000 0000 000000
2014-02-12 00:30:14,0.09,13.55,0.00,22.52,26.31,28.97,6.19,28.71,1046.55,2040.01,953.89,1302.97,1410.02,350.29,334.02,24.29,0000 0000 0000 0000 000000
2014-02-12 00:31:15,0.09,13.55,0.00,22.52,26.32,28.99,6.27,28.88,1046.54,2040.01,953.65,1302.87,1410.00,350.99,334.99,24.30,0000 0000 0000 0000 000000
2014-02-12 00:32:15,0.40,13.55,0.00,22.53,26.32,28.97,6.05,28.54,1046.64,2040.00,953.31,1302.54,1410.00,349.19,333.28,24.30,0000 0000 0000 0000 000000
2014-02-12 00:33:15,0.68,13.56,0.00,22.54,26.32,28.96,6.23,28.58,1046.60,2040.02,953.12,1302.24,1410.00,349.30,333.61,24.31,0000 0000 0000 0000 000000
2014-02-12 00:34:15,0.46,13.56,0.00,22.54,26.33,29.00,6.12,28.46,1046.64,2040.01,953.04,1302.11,1409.94,349.79,333.85,24.32,0000 0000 0000 0000 000000
2014-02-12 00:35:16,0.19,13.56,0.00,22.54,26.34,29.01,6.23,28.67,1046.56,2040.00,953.01,1302.04,1409.67,349.81,333.84,24.32,0000 0000 0000 0000 000000
2014-02-12 00:36:16,0.22,13.56,0.00,22.54,26.35,29.00,6.17,28.54,1046.47,2040.00,953.00,1302.01,1409.32,349.53,333.54,24.33,0000 0000 0000 0000 000000
2014-02-12 00:37:16,0.20,13.56,0.00,22.56,26.35,29.02,6.18,28.50,1046.50,2040.00,952.99,1302.00,1409.14,349.38,333.28,24.33,0000 0000 0000 0000 000000
2014-02-12 00:38:17,0.11,13.56,0.00,22.57,26.35,29.05,6.27,28.58,1046.49,2040.00,952.96,1301.99,1409.05,350.28,333.74,24.34,0000 0000 0000 0000 000000
2014-02-12 00:39:17,0.13,13.56,0.00,22.57,26.36,29.03,6.23,28.46,1046.55,2040.00,952.67,1301.98,1409.02,350.19,334.17,24.35,0000 0000 0000 0000 000000
2014-02-12 00:40:17,0.36,13.57,0.00,22.57,26.37,29.03,6.23,28.67,1046.52,2040.00,952.32,1301.98,1409.00,349.17,333.19,24.35,0000 0000 0000 0000 000000
2014-02-12 00:41:17,0.37,13.57,0.00,22.57,26.37,29.02,6.20,28.42,1046.49,2040.00,952.16,1301.95,1408.99,350.61,334.55,24.36,0000 0000 0000 0000 000000
2014-02-12 00:42:18,0.24,13.57,0.00,22.57,26.37,29.06,6.11,28.42,1046.43,2040.00,952.06,1301.77,1408.98,350.86,334.77,24.36,0000 0000 0000 0000 000000
2014-02-12 00:43:18,0.26,13.57,0.00,22.59,26.38,29.03,6.09,28.71,1046.44,2040.00,952.02,1301.52,1408.94,348.27,332.41,24.37,0000 0000 0000 0000 000000
2014-02-12 00:44:18,0.25,13.57,0.00,22.59,26.39,29.04,6.17,28.38,1046.44,2040.00,952.00,1301.21,1408.80,349.44,333.60,24.37,0000 0000 0000 0000 000000
2014-02-12 00:45:19,0.34,13.57,0.00,22.60,26.40,29.08,6.22,28.54,1046.44,2040.00,952.00,1301.10,1408.43,350.02,333.87,24.38,0000 0000 0000 0000 000000
2014-02-12 00:46:19,0.29,13.58,0.00,22.59,26.40,29.07,6.08,28.46,1046.42,2040.00,951.93,1301.04,1408.19,350.11,334.35,24.39,0000 0000 0000 0000 000000
2014-02-12 00:47:19,0.24,13.58,0.00,22.60,26.40,29.07,6.13,28.50,1046.40,2040.00,951.88,1301.01,1408.07,349.89,333.81,24.39,0000 0000 0000 0000 000000
2014-02-12 00:48:19,0.12,13.58,0.00,22.61,26.40,29.08,6.24,28.50,1046.42,2040.00,951.55,1301.00,1408.03,351.36,335.17,24.40,0000 0000 0000 0000 000000
2014-02-12 00:49:19,0.41,13.58,0.00,22.62,26.42,29.07,6.09,28.71,1046.42,2040.00,951.23,1300.99,1408.01,348.83,333.15,24.40,0000 0000 0000 0000 000000
2014-02-12 00:50:20,0.36,13.58,0.00,22.62,26.42,29.08,6.22,28.42,1046.40,2040.00,951.09,1300.98,1408.00,350.93,334.77,24.41,0000 0000 0000 0000 000000
2014-02-12 00:51:20,0.18,13.58,0.00,22.62,26.42,29.08,6.02,28.25,1046.42,2040.00,951.03,1300.94,1408.00,350.36,334.23,24.42,0000 0000 0000 0000 000000
2014-02-12 00:52:20,0.10,13.58,0.00,22.62,26.42,29.07,6.18,28.54,1046.43,2039.99,951.01,1300.87,1408.00,351.10,334.79,24.42,0000 0000 0000 0000 000000
2014-02-12 00:53:20,0.07,13.59,0.00,22.64,26.43,29.10,6.17,28.38,1046.42,2039.98,950.98,1300.61,1407.96,349.41,333.31,24.43,0000 0000 0000 0000 000000
2014-02-12 00:54:20,0.26,13.59,0.00,22.64,26.44,29.09,6.08,28.54,1046.40,2039.99,950.94,1300.30,1407.77,349.71,333.62,24.43,0000 0000 0000 0000 000000
2014-02-12 00:55:20,0.42,13.59,0.00,22.64,26.45,29.11,6.26,28.33,1046.41,2039.98,950.68,1300.13,1407.39,351.13,334.53,24.44,0000 0000 0000 0000 000000
2014-02-12 00:56:21,0.60,13.59,0.00,22.64,26.45,29.10,6.07,28.42,1046.40,2039.94,950.30,1300.05,1407.16,349.08,332.91,24.44,0000 0000 0000 0000 000000
2014-02-12 00:57:21,0.57,13.60,0.00,22.65,26.45,29.09,6.03,28.42,1046.41,2039.92,950.14,1300.02,1407.06,349.12,333.02,24.45,0000 0000 0000 0000 000000
2014-02-12 00:58:21,0.18,13.60,0.00,22.64,26.47,29.10,6.18,28.75,1046.40,2039.92,950.05,1300.00,1407.02,350.56,334.39,24.46,0000 0000 0000 0000 000000
2014-02-12 00:59:22,0.14,13.60,0.00,22.65,26.47,29.12,6.26,28.63,1046.40,2039.95,950.01,1299.99,1407.00,348.79,332.55,24.46,0000 0000 0000 0000 000000
2014-02-12 01:00:22,0.10,13.60,0.00,22.67,26.47,29.12,6.29,28.46,1046.40,2039.94,949.99,1299.98,1406.99,350.05,333.82,24.47,0000 0000 0000 0000 000000
2014-02-12 01:01:22,0.05,13.60,0.00,22.67,26.47,29.14,6.16,28.50,1046.40,2039.93,949.95,1299.96,1406.98,349.67,333.77,24.47,0000 0000 0000 0000 000000
2014-02-12 01:02:22,0.04,13.60,0.00,22.67,26.48,29.13,6.18,28.38,1046.40,2039.74,949.85,1299.79,1406.93,350.27,333.77,24.48,0000 0000 0000 0000 000000
2014-02-12 01:03:23,0.00,13.60,0.00,22.68,26.50,29.13,6.12,28.38,1046.40,2039.74,949.63,1299.57,1406.81,349.83,333.72,24.49,0000 0000 0000 0000 000000
2014-02-12 01:04:23,0.51,13.60,0.00,22.69,26.50,29.13,6.22,28.50,1046.40,2039.68,949.36,1299.34,1406.51,348.66,332.52,24.49,0000 0000 0000 0000 000000
2014-02-12 01:05:23,0.56,13.61,0.00,22.69,26.50,29.17,6.11,28.50,1046.40,2039.58,949.14,1299.16,1406.22,349.32,333.16,24.50,0000 0000 0000 0000 000000
2014-02-12 01:06:23,0.39,13.61,0.00,22.69,26.50,29.16,6.24,28.67,1046.39,2039.35,949.05,1299.05,1406.10,350.15,333.94,24.50,0000 0000 0000 0000 000000
2014-02-12 01:07:23,-0.02,13.61,0.00,22.70,26.51,29.16,6.32,28.46,1046.37,2039.28,949.01,1299.02,1406.03,351.51,334.88,24.51,0000 0000 0000 0000 000000
2014-02-12 01:08:23,-0.01,13.61,0.00,22.72,26.52,29.16,6.26,28.46,1046.35,2039.22,948.99,1299.00,1406.01,350.37,334.43,24.51,0000 0000 0000 0000 000000
2014-02-12 01:09:23,-0.07,13.61,0.00,22.72,26.52,29.16,6.22,28.46,1046.28,2039.17,948.98,1298.99,1406.00,350.46,334.50,24.52,0000 0000 0000 0000 000000
2014-02-12 01:10:24,0.02,13.61,0.00,22.72,26.52,29.20,6.04,28.50,1046.26,2039.13,948.89,1298.98,1405.99,349.32,333.08,24.53,0000 0000 0000 0000 000000
2014-02-12 01:11:24,0.05,13.61,0.00,22.72,26.52,29.20,6.17,28.46,1046.20,2039.15,948.60,1298.90,1405.96,350.72,334.39,24.53,0000 0000 0000 0000 000000
2014-02-12 01:12:24,0.43,13.61,0.00,22.72,26.54,29.21,6.12,28.50,1046.24,2039.11,948.26,1298.77,1405.73,349.37,333.13,24.54,0000 0000 0000 0000 000000
2014-02-12 01:13:25,0.51,13.61,0.00,22.72,26.55,29.19,6.20,28.46,1046.25,2039.08,948.09,1298.51,1405.41,350.23,333.94,24.54,0000 0000 0000 0000 000000
2014-02-12 01:14:25,0.50,13.62,0.00,22.73,26.55,29.22,6.05,28.38,1046.23,2039.07,948.03,1298.26,1405.18,350.53,334.22,24.55,0000 0000 0000 0000 000000
2014-02-12 01:15:25,0.41,13.62,0.00,22.74,26.55,29.22,6.13,28.54,1046.13,2039.06,948.01,1298.11,1405.06,349.50,333.19,24.56,0000 0000 0000 0000 000000
2014-02-12 01:16:25,0.20,13.62,0.00,22.74,26.55,29.22,6.11,28.42,1046.05,2039.03,948.00,1298.06,1405.02,349.95,333.59,24.56,0000 0000 0000 0000 000000
2014-02-12 01:17:26,0.03,13.62,0.00,22.74,26.57,29.22,6.16,28.42,1046.03,2039.04,947.93,1298.02,1405.00,349.89,333.52,24.57,0000 0000 0000 0000 000000
2014-02-12 01:18:26,0.14,13.62,0.00,22.75,26.57,29.24,5.97,28.71,1045.98,2039.02,947.61,1298.00,1404.99,349.11,332.76,24.57,0000 0000 0000 0000 000000
2014-02-12 01:19:26,0.34,13.62,0.00,22.75,26.57,29.23,6.09,28.54,1046.03,2039.01,947.27,1297.98,1404.95,348.76,332.44,24.58,0000 0000 0000 0000 000000
2014-02-12 01:20:26,0.40,13.63,0.00,22.76,26.57,29.21,6.17,28.29,1046.05,2039.00,947.12,1297.97,1404.89,350.07,333.43,24.59,0000 0000 0000 0000 000000
2014-02-12 01:21:27,0.23,13.63,0.00,22.77,26.57,29.22,6.23,28.33,1046.02,2039.02,947.04,1297.90,1404.61,351.36,334.90,24.59,0000 0000 0000 0000 000000
2014-02-12 01:22:27,0.30,13.63,0.00,22.77,26.57,29.24,6.10,28.33,1046.00,2039.00,947.01,1297.65,1404.27,350.80,333.91,24.60,0000 0000 0000 0000 000000
2014-02-12 01:23:27,0.37,13.63,0.00,22.77,26.59,29.28,6.16,28.38,1046.00,2039.00,947.00,1297.36,1404.11,350.78,334.49,24.60,0000 0000 0000 0000 000000
2014-02-12 01:24:27,0.32,13.63,0.00,22.77,26.60,29.27,6.13,28.58,1045.95,2039.00,947.00,1297.20,1404.04,349.08,332.70,24.61,0000 0000 0000 0000 000000
2014-02-12 01:25:27,0.17,13.63,0.00,22.77,26.60,29.28,6.05,28.33,1045.95,2039.00,946.89,1297.07,1404.01,349.32,333.18,24.61,0000 0000 0000 0000 000000
2014-02-12 01:26:28,0.24,13.63,0.00,22.79,26.60,29.28,6.15,28.63,1045.94,2039.00,946.61,1297.02,1404.00,349.53,333.18,24.62,0000 0000 0000 0000 000000
2014-02-12 01:27:28,0.38,13.64,0.00,22.79,26.60,29.29,6.13,28.25,1045.96,2039.00,946.26,1297.00,1403.99,350.22,333.92,24.63,0000 0000 0000 0000 000000
2014-02-12 01:28:28,0.37,13.64,0.00,22.79,26.61,29.25,6.27,28.63,1045.94,2039.00,946.11,1297.00,1403.98,351.39,334.89,24.63,0000 0000 0000 0000 000000
2014-02-12 01:29:28,0.19,13.64,0.00,22.80,26.62,29.26,6.27,28.67,1045.94,2039.00,946.04,1296.99,1403.83,350.40,334.27,24.64,0000 0000 0000 0000 000000
2014-02-12 01:30:29,0.16,13.64,0.00,22.80,26.62,29.30,6.16,28.54,1045.93,2039.00,946.01,1296.99,1403.43,349.59,333.14,24.64,0000 0000 0000 0000 000000
2014-02-12 01:31:29,0.22,13.64,0.00,22.80,26.62,29.29,6.18,28.79,1045.93,2039.00,945.99,1296.79,1403.18,349.96,333.49,24.65,0000 0000 0000 0000 000000
2014-02-12 01:32:29,0.30,13.64,0.00,22.82,26.62,29.30,6.27,28.54,1045.92,2038.99,945.94,1296.44,1403.07,350.44,333.93,24.66,0000 0000 0000 0000 000000
2014-02-12 01:33:29,0.45,13.65,0.00,22.82,26.64,29.30,6.24,28.29,1045.92,2038.99,945.66,1296.25,1403.02,350.88,334.05,24.66,0000 0000 0000 0000 000000
2014-02-12 01:34:30,0.50,13.65,0.00,22.82,26.65,29.32,6.21,28.58,1045.92,2038.99,945.32,1296.11,1402.99,349.56,333.08,24.67,0000 0000 0000 0000 000000
2014-02-12 01:35:30,0.48,13.65,0.00,22.82,26.65,29.30,6.28,28.42,1045.92,2038.99,945.12,1296.04,1402.98,352.15,335.57,24.67,0000 0000 0000 0000 000000
2014-02-12 01:36:30,0.28,13.65,0.00,22.84,26.65,29.29,6.09,28.38,1045.92,2038.99,945.04,1296.01,1402.93,349.70,332.95,24.68,0000 0000 0000 0000 000000
2014-02-12 01:37:31,0.15,13.66,0.00,22.84,26.65,29.34,6.13,28.63,1045.92,2038.99,945.00,1296.00,1402.60,351.44,334.48,24.68,0000 0000 0000 0000 000000
2014-02-12 01:38:31,0.19,13.66,0.00,22.84,26.66,29.35,6.24,28.67,1045.92,2038.99,944.98,1295.99,1402.30,350.08,333.51,24.69,0000 0000 0000 0000 000000
2014-02-12 01:39:31,0.22,13.66,0.00,22.84,26.67,29.33,6.19,28.38,1045.92,2038.99,944.84,1295.96,1402.12,350.29,333.14,24.70,0000 0000 0000 0000 000000
2014-02-12 01:40:32,0.29,13.66,0.00,22.85,26.67,29.31,6.14,28.50,1045.92,2038.98,944.54,1295.75,1402.04,349.22,332.74,24.70,0000 0000 0000 0000 000000
2014-02-12 01:41:32,0.53,13.66,0.00,22.85,26.67,29.34,6.03,28.50,1045.92,2038.99,944.22,1295.33,1402.01,349.98,333.46,24.71,0000 0000 0000 0000 000000
2014-02-12 01:42:32,0.70,13.67,0.00,22.86,26.67,29.34,6.20,28.50,1045.92,2038.98,944.08,1295.13,1402.00,349.12,332.18,24.71,0000 0000 0000 0000 000000
2014-02-12 01:43:33,0.33,13.67,0.00,22.87,26.68,29.34,6.21,28.42,1045.92,2038.97,944.02,1295.05,1401.97,350.81,334.19,24.72,0000 0000 0000 0000 000000
2014-02-12 01:44:33,0.14,13.67,0.00,22.87,26.70,29.36,6.27,28.63,1045.90,2038.94,943.99,1295.02,1401.72,350.57,333.98,24.73,0000 0000 0000 0000 000000
2014-02-12 01:45:33,0.15,13.67,0.00,22.87,26.70,29.34,6.09,28.50,1045.76,2038.91,943.96,1295.00,1401.33,349.70,333.12,24.73,0000 0000 0000 0000 000000
2014-02-12 01:46:33,0.21,13.67,0.00,22.87,26.70,29.34,6.04,28.63,1045.58,2038.88,943.73,1294.98,1401.13,349.10,332.69,24.74,0000 0000 0000 0000 000000
2014-02-12 01:47:34,0.33,13.67,0.00,22.87,26.70,29.36,6.23,28.54,1045.53,2038.77,943.34,1294.81,1401.04,351.07,334.29,24.74,0000 0000 0000 0000 000000
2014-02-12 01:48:34,0.48,13.68,0.00,22.89,26.71,29.36,6.17,28.58,1045.55,2038.60,943.13,1294.37,1401.01,349.85,333.28,24.75,0000 0000 0000 0000 000000
2014-02-12 01:49:34,0.36,13.68,0.00,22.89,26.72,29.37,6.15,28.46,1045.52,2038.52,943.04,1294.14,1400.99,350.37,333.65,24.75,0000 0000 0000 0000 000000
2014-02-12 01:50:34,0.20,13.68,0.00,22.90,26.72,29.39,6.18,28.83,1045.51,2038.49,943.01,1294.06,1400.95,349.77,333.07,24.76,0000 0000 0000 0000 000000
2014-02-12 01:51:35,0.13,13.68,0.00,22.90,26.72,29.37,6.13,28.38,1045.50,2038.52,942.98,1294.02,1400.68,351.24,334.47,24.77,0000 0000 0000 0000 000000
2014-02-12 01:52:35,0.25,13.68,0.00,22.92,26.72,29.36,6.17,28.54,1045.44,2038.51,942.80,1294.00,1400.33,350.42,333.65,24.77,0000 0000 0000 0000 000000
2014-02-12 01:53:35,0.30,13.68,0.00,22.92,26.74,29.36,6.29,28.67,1045.44,2038.34,942.41,1293.99,1400.12,351.24,334.42,24.78,0000 0000 0000 0000 000000
2014-02-12 01:54:36,0.27,13.69,0.00,22.92,26.75,29.38,6.20,28.46,1045.44,2038.29,942.15,1293.95,1400.04,351.24,334.42,24.78,0000 0000 0000 0000 000000
2014-02-12 01:55:36,0.34,13.69,0.00,22.92,26.75,29.42,5.99,28.50,1045.44,2038.26,942.05,1293.73,1400.01,348.81,332.10,24.79,0000 0000 0000 0000 000000
2014-02-12 01:56:36,0.28,13.69,0.00,22.94,26.75,29.40,6.23,28.58,1045.45,2038.16,942.02,1293.38,1399.99,350.07,333.33,24.80,0000 0000 0000 0000 000000
2014-02-12 01:57:37,0.21,13.69,0.00,22.94,26.75,29.40,6.01,28.50,1045.44,2038.11,941.99,1293.16,1399.96,348.82,332.09,24.80,0000 0000 0000 0000 000000
2014-02-12 01:58:37,0.16,13.69,0.00,22.94,26.75,29.40,6.17,28.71,1045.44,2038.09,941.91,1293.06,1399.79,350.02,333.55,24.81,0000 0000 0000 0000 000000
2014-02-12 01:59:37,0.35,13.70,0.00,22.94,26.77,29.42,6.27,28.83,1045.44,2038.07,941.49,1293.02,1399.42,350.86,334.03,24.81,0000 0000 0000 0000 000000
2014-02-12 02:00:38,0.59,13.70,0.00,22.95,26.77,29.46,6.04,28.75,1045.45,2038.09,941.22,1293.00,1399.17,349.69,332.82,24.82,0000 0000 0000 0000 000000
2014-02-12 02:01:38,0.44,13.70,0.00,22.97,26.77,29.45,6.17,28.42,1045.45,2038.06,941.08,1292.99,1399.07,351.12,334.26,24.83,0000 0000 0000 0000 000000
2014-02-12 02:02:38,0.17,13.70,0.00,22.97,26.77,29.45,6.01,28.38,1045.44,2038.03,941.02,1292.95,1399.02,349.57,332.62,24.83,0000 0000 0000 0000 000000
2014-02-12 02:03:38,0.13,13.70,0.00,22.97,26.78,29.44,6.07,28.54,1045.43,2038.04,941.00,1292.75,1399.00,349.48,332.76,24.84,0000 0000 0000 0000 000000
2014-02-12 02:04:39,0.20,13.70,0.00,22.98,26.79,29.46,6.00,28.50,1045.43,2038.02,940.98,1292.41,1398.95,348.36,332.15,24.84,0000 0000 0000 0000 000000
2014-02-12 02:05:39,0.30,13.70,0.00,22.99,26.80,29.43,6.19,28.54,1045.45,2038.03,940.90,1292.16,1398.84,349.19,332.40,24.85,0000 0000 0000 0000 000000
2014-02-12 02:06:39,0.45,13.71,0.00,22.99,26.80,29.46,6.08,28.75,1045.44,2038.03,940.55,1292.06,1398.44,349.28,332.47,24.85,0000 0000 0000 0000 000000
2014-02-12 02:07:39,0.60,13.71,0.00,22.99,26.80,29.47,6.27,28.63,1045.43,2038.01,940.23,1292.02,1398.16,350.36,333.59,24.86,0000 0000 0000 0000 000000
2014-02-12 02:08:40,0.50,13.72,0.00,23.00,26.80,29.47,6.11,28.63,1045.43,2038.01,940.09,1292.00,1398.06,350.19,332.96,24.87,0000 0000 0000 0000 000000
2014-02-12 02:09:40,0.22,13.72,0.00,23.00,26.81,29.48,6.10,28.63,1045.43,2038.01,940.03,1291.98,1398.02,349.59,332.76,24.87,0000 0000 0000 0000 000000
2014-02-12 02:10:40,0.11,13.72,0.00,23.00,26.82,29.46,6.33,28.58,1045.43,2038.01,939.97,1291.88,1397.99,349.76,332.92,24.88,0000 0000 0000 0000 000000
2014-02-12 02:11:40,0.19,13.72,0.00,23.00,26.82,29.46,6.09,28.54,1045.43,2038.00,939.90,1291.61,1397.96,349.35,332.52,24.88,0000 0000 0000 0000 000000
2014-02-12 02:12:41,0.38,13.72,0.00,23.02,26.82,29.46,6.07,28.50,1045.44,2038.01,939.62,1291.29,1397.73,349.48,332.64,24.89,0000 0000 0000 0000 000000
2014-02-12 02:13:41,0.68,13.73,0.00,23.02,26.82,29.51,6.03,28.50,1045.43,2038.00,939.25,1291.11,1397.34,349.67,332.41,24.90,0000 0000 0000 0000 000000
2014-02-12 02:14:41,0.69,13.73,0.00,23.02,26.83,29.50,6.13,28.54,1045.43,2038.00,939.09,1291.04,1397.13,349.93,332.77,24.90,0000 0000 0000 0000 000000
2014-02-12 02:15:41,0.35,13.73,0.00,23.03,26.84,29.50,6.16,28.50,1045.43,2038.00,939.03,1291.00,1397.05,350.02,333.13,24.91,0000 0000 0000 0000 000000
2014-02-12 02:16:42,0.13,13.73,0.00,23.04,26.85,29.50,6.13,28.63,1045.43,2038.00,939.00,1290.98,1397.01,350.60,333.67,24.91,0000 0000 0000 0000 000000
2014-02-12 02:17:42,0.09,13.73,0.00,23.04,26.85,29.49,5.99,28.58,1045.43,2038.00,938.90,1290.91,1396.96,350.05,332.77,24.92,0000 0000 0000 0000 000000
2014-02-12 02:18:42,0.23,13.73,0.00,23.04,26.85,29.47,6.24,28.54,1045.43,2038.00,938.65,1290.59,1396.76,350.19,333.42,24.92,0000 0000 0000 0000 000000
2014-02-12 02:19:42,0.61,13.73,0.00,23.05,26.85,29.49,6.16,28.58,1045.44,2038.00,938.38,1290.26,1396.43,349.38,332.13,24.93,0000 0000 0000 0000 000000
2014-02-12 02:20:43,0.77,13.74,0.00,23.06,26.86,29.52,6.17,28.46,1045.43,2038.00,938.16,1290.09,1396.19,350.74,333.63,24.94,0000 0000 0000 0000 000000
2014-02-12 02:21:43,0.49,13.74,0.00,23.07,26.87,29.52,6.17,28.38,1045.44,2038.00,938.07,1290.03,1396.08,350.21,333.28,24.94,0000 0000 0000 0000 000000
2014-02-12 02:22:43,0.22,13.74,0.00,23.07,26.87,29.54,6.14,28.75,1045.43,2038.00,938.02,1290.01,1396.03,348.71,331.84,24.95,0000 0000 0000 0000 000000
2014-02-12 02:23:44,0.11,13.75,0.00,23.07,26.87,29.51,6.18,28.63,1045.43,2038.00,937.98,1290.00,1396.01,349.89,332.95,24.95,0000 0000 0000 0000 000000
2014-02-12 02:24:44,0.05,13.75,0.00,23.08,26.87,29.55,6.12,28.46,1045.43,2038.00,937.91,1289.99,1395.98,350.51,333.52,24.96,0000 0000 0000 0000 000000
2014-02-12 02:25:44,0.15,13.75,0.00,23.09,26.89,29.56,6.11,28.54,1045.43,2038.00,937.58,1289.84,1395.77,349.95,333.00,24.97,0000 0000 0000 0000 000000
2014-02-12 02:26:44,0.61,13.75,0.00,23.09,26.90,29.52,6.07,28.79,1045.43,2038.00,937.24,1289.50,1395.37,349.89,332.94,24.97,0000 0000 0000 0000 000000
2014-02-12 02:27:45,0.81,13.76,0.00,23.09,26.90,29.55,6.09,28.67,1045.43,2037.99,937.09,1289.21,1395.15,348.85,331.94,24.98,0000 0000 0000 0000 000000
2014-02-12 02:28:45,0.53,13.76,0.00,23.09,26.90,29.58,5.95,28.63,1045.43,2037.99,937.03,1289.08,1395.05,348.92,332.01,24.98,0000 0000 0000 0000 000000
2014-02-12 02:29:45,0.25,13.76,0.00,23.10,26.90,29.58,6.19,28.71,1045.43,2037.98,937.01,1289.02,1395.02,349.63,332.68,24.99,0000 0000 0000 0000 000000
2014-02-12 02:30:46,0.05,13.76,0.00,23.11,26.90,29.57,6.17,28.92,1045.43,2037.94,936.97,1289.00,1394.99,350.66,333.51,25.00,0000 0000 0000 0000 000000
2014-02-12 02:31:46,0.07,13.76,0.00,23.12,26.92,29.55,6.18,28.63,1045.43,2037.92,936.79,1288.99,1394.94,350.39,333.38,25.00,0000 0000 0000 0000 000000
2014-02-12 02:32:46,0.22,13.76,0.00,23.12,26.92,29.55,6.24,28.46,1045.43,2037.96,936.51,1288.95,1394.79,350.61,333.60,25.01,0000 0000 0000 0000 000000
2014-02-12 02:33:46,0.47,13.76,0.00,23.12,26.92,29.56,6.03,28.46,1045.43,2037.95,936.24,1288.82,1394.44,349.91,332.93,25.01,0000 0000 0000 0000 000000
2014-02-12 02:34:47,0.60,13.77,0.00,23.14,26.92,29.59,6.18,28.63,1045.43,2037.95,936.09,1288.53,1394.19,349.81,332.82,25.02,0000 0000 0000 0000 000000
2014-02-12 02:35:47,0.52,13.77,0.00,23.14,26.93,29.62,5.95,28.67,1045.42,2037.97,936.03,1288.25,1394.07,348.98,332.01,25.02,0000 0000 0000 0000 000000